FW8927 Weather Reports


time (UTC)temp
C
wind
direction
speed
KPH
gust
KPH
rain 1hr
cm
rain 24hr
cm
rain mn
cm
humidity
%
barometer
mb
20260505073100 16 213 8.0 17.7 0.00 0.20 0.00 71 1008.1
20260505071555 16 236 8.0 20.9 0.00 0.20 0.00 71 1008.1
20260505070056 16 225 6.4 22.5 0.00 0.20 0.00 72 1008.2
20260505064553 16 207 8.0 19.3 0.00 0.20 0.00 72 1008.1
20260505063112 16 205 6.4 17.7 0.00 0.20 0.00 73 1008.2
20260505061556 16 239 6.4 14.5 0.00 0.20 0.00 73 1008.2
20260505060057 16 209 4.8 16.1 0.00 0.20 0.00 73 1008.5
20260505054608 16 234 4.8 12.9 0.00 0.20 0.00 73 1008.5
20260505053100 16 209 6.4 17.7 0.00 0.20 0.00 73 1008.6
20260505051553 17 274 4.8 16.1 0.00 0.20 0.00 72 1008.5
20260505041558 17 227 4.8 14.5 0.00 0.20 0.00 71 1007.8
20260505040058 17 243 4.8 11.3 0.00 0.20 0.00 71 1007.7
20260505034549 17 215 3.2 11.3 0.00 0.20 0.20 72 1007.5
20260505033054 17 242 3.2 11.3 0.00 0.20 0.20 72 1007.6
20260505031604 17 250 3.2 8.0 0.00 0.20 0.20 71 1007.5
20260505030053 17 257 1.6 4.8 0.00 0.20 0.20 71 1007.3
20260505024603 17 218 1.6 6.4 0.00 0.20 0.20 70 1007.2
20260505023051 18 0 1.6 4.8 0.00 0.20 0.20 69 1007.1
20260505021555 18 228 1.6 6.4 0.00 0.20 0.20 68 1007.1
20260505020053 18 215 1.6 6.4 0.00 0.20 0.20 66 1007.1
20260505014606 18 222 1.6 4.8 0.00 0.20 0.20 64 1007.0
20260505013054 19 222 1.6 4.8 0.00 0.20 0.20 61 1006.8
20260505011602 19 239 1.6 3.2 0.00 0.20 0.20 59 1006.8
20260505010052 20 0 0.0 4.8 0.00 0.20 0.20 56 1006.7
20260505004552 21 215 1.6 6.4 0.00 0.20 0.20 54 1006.9
20260505003054 21 194 3.2 8.0 0.00 0.20 0.20 50 1006.8
20260505001551 22 235 4.8 12.9 0.00 0.20 0.20 49 1007.0
20260505000110 22 230 3.2 12.9 0.00 0.20 0.20 49 1007.1
20260504234553 22 231 4.8 19.3 0.00 0.20 0.20 48 1006.9
20260504233106 23 265 3.2 16.1 0.00 0.20 0.20 48 1007.0
20260504231558 23 235 8.0 22.5 0.00 0.20 0.20 46 1006.9
20260504230053 23 231 8.0 20.9 0.00 0.20 0.20 46 1007.0
20260504224604 24 337 11.3 27.4 0.00 0.20 0.20 46 1007.2
20260504223110 24 234 8.0 19.3 0.00 0.20 0.20 46 1007.1
20260504221550 24 250 3.2 19.3 0.00 0.20 0.20 48 1007.1
20260504220054 24 241 8.0 17.7 0.00 0.20 0.20 47 1007.2
20260504214554 24 244 9.7 22.5 0.00 0.20 0.20 49 1007.2
20260504213102 23 254 6.4 20.9 0.00 0.20 0.20 51 1007.1
20260504211553 23 228 6.4 19.3 0.00 0.20 0.20 53 1007.1
20260504210057 24 290 11.3 24.1 0.00 0.20 0.20 50 1007.3
20260504204556 24 210 8.0 30.6 0.00 0.20 0.20 51 1007.5
20260504203109 23 256 14.5 35.4 0.00 0.20 0.20 51 1007.7
20260504201557 24 269 11.3 25.7 0.00 0.20 0.20 51 1007.6
20260504200118 23 255 11.3 25.7 0.00 0.20 0.20 53 1007.9
20260504194552 23 271 9.7 33.8 0.00 0.20 0.20 55 1008.0
20260504193056 23 187 8.0 27.4 0.00 0.20 0.20 58 1008.0
20260504191559 22 161 9.7 24.1 0.00 0.20 0.20 56 1008.1
20260504190105 22 284 9.7 27.4 0.00 0.20 0.20 57 1008.2
20260504184558 22 147 8.0 32.2 0.00 0.20 0.20 58 1008.4
20260504183059 21 221 12.9 33.8 0.00 0.20 0.20 60 1008.3
20260504181554 21 220 17.7 33.8 0.00 0.20 0.20 61 1008.4
20260504180058 20 219 19.3 41.8 0.00 0.20 0.20 61 1008.2
20260504174604 20 221 12.9 29.0 0.00 0.20 0.20 63 1008.6
20260504173101 19 184 14.5 32.2 0.00 0.20 0.20 67 1008.7
20260504171554 17 215 16.1 40.2 0.00 0.20 0.20 69 1009.1
20260504150113 11 46 6.4 29.0 0.08 0.18 0.18 90 1011.0
20260504120105 8 218 4.8 20.9 0.08 0.10 0.10 93 1012.0
20260504090104 8 241 1.6 8.0 0.00 0.00 0.00 79 1011.1
20260504081554 10 193 4.8 12.9 0.00 0.00 0.00 73 1011.9